Погода в Кака-Шуре

Россия / Республика Дагестан     42°39′19″N   47°23′15″E
темп.,
°C
ветер,
м/с
пор.,
м/с
влажн.,
%
обл.,
%
осадки,
мм/ч
давл.,
гПа
погр.,
м
26 июня, вс
вс2600:00+20зсз2278100 0.0 100713
03:00+20юз2278100 0.3 100820
06:00+20юз1172100 0.0 100722
09:00+24ссв215889 0.0 1006760
12:00+26св3252100 0.0 10051188
15:00+28с334676 0.1 10041390
18:00+27сз3547100 0.0 1004901
21:00+22з3471100 0.9 100650
27 июня, пн
пн2700:00+21з3471100 0.1 100649
03:00+20з43730 0.3 100641
06:00+22зсз46720 0.0 1008310
09:00+27сз67500 0.0 1007861
12:00+30сз99420 0.0 10071299
15:00+30ссз8104115 0.0 10071614
18:00+27сз81156100 0.0 10071163
21:00+23зсз61266100 0.0 1009460
28 июня, вт
вт2800:00+21зсз61371100 0.0 1008500
03:00+20зсз7137442 0.0 1008528
06:00+21сз713650 0.0 1009776
09:00+25сз1113490 0.0 10091031
12:00+28сз911390 0.0 10091554
15:00+27с1011424 0.0 10091657
18:00+25с79420 0.0 10111103
21:00+21з34460 0.0 101340
29 июня, ср
ср2900:00+20зюз33461 0.0 101327
03:00+19зюз33501 0.0 101218
06:00+22з22490 0.0 101393
09:00+26ссв32290 0.0 10131168
12:00+28св53291 0.1 10131667
15:00+26всв54492 0.1 10131096
18:00+22в337512 0.0 1014572
21:00+19в229490 0.0 1015137
30 июня, чт
чт3000:00+18в229297 0.0 1015137
03:00+18всв229193 0.1 1015294
06:00+18вюв238584 0.1 1015349
09:00+21всв336749 0.1 1015810
12:00+23в545024 0.0 10141077
15:00+22в534751 0.0 10141058
18:00+20в3251100 0.0 1015613
21:00+17ю016674 0.0 101613